Wind_Speed
8 8 8 8 8 8 8 8 7 7 7 7 7 7 8 9 10 11 12 13 14 16 17 18 18 18 19 18 17 16 16 17 17 17 17 19 20 19 18 17 15 13 14 14 14 13 12 11 10 8 6 5 4 4 5 5 5 4 7 10 9 7 3 3 10 14 15 17 18 19 19 19 21 20 19 19 18 16 14 13 13 15 16 16 16 16 16 17
9 8 8 8 8 8 8 9 9 9 8 8 8 8 8 9 10 11 12 13 13 15 16 18 19 19 19 18 18 17 16 16 17 17 18 20 20 19 18 17 15 13 13 12 12 12 11 11 10 9 6 4 6 6 5 6 6 4 7 8 9 8 5 2 10 16 16 17 20 18 18 19 20 20 20 19 18 16 14 15 17 19 18 16 17 18 15 16
9 9 8 8 8 8 8 8 9 10 10 10 9 9 8 9 10 11 12 12 13 14 15 17 18 19 19 18 18 17 17 16 16 18 19 20 20 18 17 16 15 13 12 11 12 13 13 12 11 10 6 5 8 8 6 6 5 5 6 7 8 11 6 2 10 17 15 17 21 19 18 19 19 19 18 18 18 15 14 17 18 18 17 16 18 19 17 16
10 9 8 8 8 8 8 8 8 8 9 9 9 9 8 9 9 11 12 12 13 13 14 15 17 18 18 19 17 17 18 14 16 20 18 20 21 18 17 15 14 13 12 12 13 15 16 14 13 12 8 7 10 9 8 7 5 5 6 5 8 12 7 4 12 18 16 17 19 18 17 18 17 18 18 17 17 16 14 15 15 14 15 17 18 19 18 16
11 10 9 9 8 8 8 8 8 8 7 7 7 8 8 8 8 10 11 12 13 13 14 14 16 17 17 19 17 17 15 9 17 22 17 20 21 18 17 15 14 14 13 13 14 16 17 15 15 15 11 9 10 10 9 9 7 6 5 4 7 11 6 5 14 18 17 16 18 17 16 17 16 17 19 17 15 14 14 14 13 13 13 16 18 19 19 17
11 11 10 10 9 9 8 7 7 7 7 7 6 6 6 7 7 8 9 11 12 13 13 14 15 16 16 17 16 16 14 10 19 23 18 20 20 17 17 16 15 16 14 14 14 16 17 17 17 15 11 10 10 11 9 9 9 6 5 4 7 10 2 9 15 17 16 16 18 18 15 16 17 17 18 17 13 13 15 14 14 15 14 15 18 18 18 18
12 11 11 10 10 9 8 8 7 7 6 6 6 6 6 7 7 7 8 9 11 13 13 14 15 15 15 15 15 16 14 14 21 22 18 20 19 17 18 17 17 17 15 15 15 16 17 18 17 13 10 10 10 11 9 9 8 5 5 5 6 8 3 13 18 16 16 16 18 19 16 16 18 18 17 16 14 15 15 16 16 17 16 16 18 18 18 18
12 11 11 10 10 9 9 8 8 7 7 6 6 6 7 7 8 8 7 7 9 11 12 14 14 14 14 13 15 12 10 18 24 20 17 18 18 18 19 18 17 17 16 14 13 14 16 18 17 13 10 10 10 10 10 9 7 7 5 4 7 4 5 14 19 16 15 18 19 19 17 17 19 17 15 16 16 16 16 17 18 17 17 17 17 18 19 18
11 11 11 10 10 10 10 9 9 8 8 7 7 6 7 8 8 8 7 7 7 9 12 14 14 15 14 13 13 8 10 22 23 20 19 17 17 18 19 18 17 17 16 15 13 14 15 16 17 13 10 10 10 10 11 7 6 7 4 5 7 3 8 15 19 16 15 19 19 20 20 19 19 16 15 16 16 16 16 17 19 18 17 18 17 18 18 18
11 11 10 10 10 10 10 10 10 9 9 8 7 7 7 7 7 8 8 8 7 7 10 11 14 15 13 13 11 6 14 24 20 20 21 17 16 17 18 18 18 17 16 16 15 15 14 13 14 12 11 11 9 10 11 8 8 6 3 6 4 8 11 14 18 15 15 18 18 20 21 20 19 16 14 16 17 18 16 16 19 19 18 18 18 18 18 17
11 10 10 10 10 10 10 10 10 10 9 8 8 7 7 7 8 8 8 8 8 7 7 9 12 13 13 14 9 7 19 23 18 21 21 18 16 16 18 18 18 18 17 16 15 16 15 12 12 12 11 10 8 9 11 11 10 5 4 6 3 7 9 11 16 16 14 17 16 18 20 19 18 14 14 16 18 18 16 17 20 20 19 19 18 18 18 18
11 11 10 10 10 10 11 10 10 9 9 9 8 8 8 8 8 8 9 9 9 9 8 7 9 11 13 11 10 15 21 19 17 20 19 18 17 16 17 18 19 19 18 16 15 15 15 14 15 14 10 10 9 8 10 13 9 5 5 4 4 7 9 9 14 16 14 16 16 16 17 17 16 14 14 16 19 18 15 18 22 21 20 20 19 18 18 18
11 11 11 10 10 10 10 9 9 9 9 9 9 9 9 9 9 9 9 9 9 9 9 7 7 9 10 8 13 19 17 14 16 17 18 18 16 15 17 19 20 21 21 17 13 15 17 19 21 18 12 9 8 10 14 14 9 6 7 6 4 8 11 10 14 16 16 15 16 15 14 15 15 14 16 17 20 19 16 20 23 22 21 20 20 19 18 17
11 11 11 10 10 10 10 9 9 10 10 10 10 9 9 9 9 9 9 9 9 9 9 8 7 7 8 9 14 16 14 14 15 15 16 16 16 15 15 18 20 22 23 21 16 19 21 20 22 21 15 13 11 15 17 13 11 10 9 9 5 7 11 13 14 17 17 17 18 15 13 16 17 17 18 18 21 19 16 20 23 22 21 21 20 19 17 16
10 10 10 10 10 10 10 10 10 10 11 10 10 10 9 9 9 9 9 9 9 9 8 7 7 6 3 6 13 12 12 12 12 14 15 14 15 14 15 17 19 20 23 23 21 23 21 18 21 20 15 16 14 13 14 13 14 14 12 12 9 7 10 13 15 15 16 18 21 15 12 16 18 18 19 19 22 20 17 19 23 23 21 21 20 19 17 16
10 10 10 10 10 10 10 10 10 10 10 10 10 10 9 9 8 8 8 9 9 8 7 7 6 2 3 3 10 8 7 7 11 14 13 12 12 12 14 16 17 20 21 23 23 21 20 18 20 17 13 14 14 12 12 15 16 16 16 14 14 12 10 12 15 14 14 18 21 14 10 15 17 18 20 21 24 21 18 19 22 23 21 20 20 20 19 17
9 9 10 9 10 10 10 10 9 10 10 10 10 9 10 10 10 10 10 10 8 8 8 7 7 5 3 3 5 3 5 9 10 12 12 12 11 11 12 13 16 18 19 21 21 19 18 18 17 16 15 15 16 15 15 17 17 16 17 14 11 12 12 13 15 16 15 16 20 15 9 13 16 19 20 22 25 21 18 20 21 22 22 21 20 20 20 19
9 9 9 9 9 9 9 9 9 9 10 11 11 11 11 11 13 13 12 10 8 12 12 7 11 8 2 3 0 4 6 9 10 10 12 11 11 10 10 12 15 17 17 18 19 18 16 15 15 15 16 17 18 20 19 17 16 16 17 14 8 10 12 11 13 17 17 15 17 15 10 13 17 19 19 21 24 22 18 19 21 22 22 21 21 21 20 19
8 8 8 8 8 8 8 8 8 10 10 11 11 9 10 12 15 14 12 12 11 12 11 5 7 5 2 4 1 6 6 8 9 9 10 9 9 9 9 10 13 15 14 14 16 17 15 14 15 17 18 19 19 22 21 14 13 14 14 15 11 12 11 9 10 14 15 15 16 15 13 15 18 20 21 22 24 24 21 22 22 22 22 21 20 21 20 19
7 7 7 7 7 7 7 7 8 9 9 10 9 7 10 12 12 10 11 17 14 10 7 4 4 1 1 3 1 3 4 6 6 7 9 9 8 8 8 9 11 14 13 13 15 16 16 16 18 19 20 21 19 22 22 12 11 12 11 13 12 12 11 9 8 10 14 15 14 16 15 13 16 21 22 22 24 25 24 24 25 24 22 21 20 21 20 19
6 7 7 6 6 6 6 7 8 8 9 10 10 10 11 8 5 5 9 12 11 9 8 6 5 2 1 2 3 3 3 6 6 7 10 9 8 8 8 9 11 14 15 14 12 14 17 18 19 19 19 20 19 21 21 14 12 12 12 9 10 8 10 9 7 10 13 13 12 15 17 13 14 19 23 24 23 23 24 25 26 24 22 22 21 21 21 20
5 6 5 5 5 5 6 7 8 8 9 10 11 13 10 6 9 11 12 8 5 10 10 8 8 5 4 3 3 7 7 7 7 8 9 8 10 9 8 10 12 13 15 15 13 15 19 19 18 17 18 18 18 20 19 15 14 15 14 8 5 4 8 8 7 11 12 12 10 13 16 13 13 16 20 23 22 22 23 24 24 24 23 22 22 23 22 21
5 4 4 4 4 5 6 6 7 7 8 10 12 12 6 6 11 11 11 6 2 7 8 6 7 4 5 7 1 9 10 7 8 8 8 9 11 10 8 11 13 13 15 17 16 16 19 19 16 16 18 18 16 18 17 15 15 16 17 11 6 6 8 7 8 10 11 11 10 12 15 13 13 16 16 18 20 22 23 23 24 26 25 24 22 23 23 22
4 3 3 3 2 4 5 6 7 6 7 9 11 11 6 6 9 8 7 3 1 5 6 5 7 4 4 3 5 11 8 6 8 9 7 10 10 9 9 11 13 13 15 17 17 16 16 16 16 16 18 17 15 15 16 18 17 16 18 14 10 12 11 9 9 10 11 12 10 11 15 16 17 18 17 18 20 23 25 25 26 27 27 26 24 22 24 24
3 2 2 2 2 4 5 6 5 4 6 7 8 8 5 5 5 6 5 1 4 4 6 6 5 3 7 5 9 8 5 5 6 9 7 9 9 9 8 11 13 13 14 16 17 17 15 14 15 17 17 16 15 16 17 19 19 17 17 13 8 11 12 10 11 11 11 13 13 12 13 14 17 17 17 19 21 24 27 27 28 27 27 29 27 24 25 26
2 1 1 2 3 4 5 6 4 4 6 6 5 5 4 4 1 1 4 6 4 7 5 6 5 2 6 5 6 3 5 7 6 7 7 9 10 8 7 11 13 12 12 15 17 17 15 14 14 15 16 17 17 17 16 18 19 18 17 12 5 6 11 10 10 11 11 10 11 14 10 9 14 18 18 19 20 22 24 26 27 28 30 31 29 27 27 27
1 1 2 2 4 5 4 5 3 5 5 4 2 4 5 4 2 3 6 9 3 10 3 4 6 2 3 3 3 1 4 8 7 5 6 10 9 6 8 11 13 11 9 13 16 17 16 14 14 14 14 17 19 18 15 18 20 16 12 14 8 6 9 9 9 11 11 6 7 13 13 8 12 18 20 20 20 20 22 25 27 29 32 32 31 29 28 28
1 1 2 2 4 5 4 4 3 5 3 1 1 3 4 4 3 4 7 5 6 7 3 2 4 1 3 1 1 1 2 6 7 7 6 9 9 7 8 9 11 11 10 14 15 15 16 13 14 17 16 16 18 17 14 16 20 11 4 11 11 9 10 9 11 13 11 8 8 12 12 10 9 16 22 20 19 22 23 25 28 29 32 33 31 29 28 28
1 1 2 2 5 6 5 4 3 4 5 3 3 3 3 3 4 5 9 4 6 3 4 3 4 1 2 3 1 1 4 4 4 5 7 8 9 11 10 7 9 11 11 17 15 11 14 13 12 17 19 17 17 17 15 16 19 9 3 9 11 10 11 10 11 14 11 10 11 11 12 10 7 16 25 24 24 26 24 24 25 25 31 35 33 31 29 29
2 1 2 2 5 7 6 4 4 5 5 4 5 4 4 4 5 7 6 5 5 4 4 3 3 0 3 5 3 2 3 3 1 4 8 7 8 11 11 8 8 10 11 18 19 11 11 13 12 15 18 17 15 16 16 17 19 11 5 9 11 10 12 11 12 13 10 10 13 13 12 11 8 10 18 22 22 22 21 23 23 23 31 36 36 35 32 30
2 2 2 3 5 7 7 5 4 4 4 4 5 5 5 5 8 7 4 5 3 5 4 2 3 2 4 5 4 3 4 4 2 5 7 7 8 9 10 9 8 10 11 16 19 13 11 13 12 13 16 15 14 18 18 16 18 15 9 11 13 13 13 12 11 10 8 8 11 15 14 12 11 9 11 12 11 14 18 20 21 23 29 35 37 38 36 32
2 2 2 3 4 5 6 5 5 3 3 4 6 7 5 8 8 5 9 5 4 5 5 3 4 2 3 3 1 2 4 4 3 6 6 7 10 10 11 11 9 12 14 16 19 15 12 13 13 14 16 15 14 19 21 15 17 18 14 14 15 13 11 9 9 10 10 10 9 10 10 12 11 7 9 8 5 10 16 15 16 19 25 33 37 38 37 33
1 2 2 3 4 5 5 4 5 4 4 3 4 5 7 10 4 5 8 7 4 5 5 3 3 1 2 3 2 0 3 1 1 6 6 6 8 9 10 9 9 12 11 13 19 18 14 13 14 17 18 16 14 17 20 16 19 22 19 18 16 12 8 7 9 9 10 12 12 9 7 11 11 5 6 9 6 8 13 12 13 15 20 29 35 37 37 34
1 2 2 3 4 5 4 4 5 4 3 3 2 5 10 7 4 3 5 7 6 4 1 1 2 1 1 1 1 2 3 3 4 4 5 6 7 7 9 8 9 11 8 10 19 21 17 13 16 19 19 20 20 18 15 13 18 23 20 19 18 15 11 8 8 9 9 12 13 12 8 10 10 6 4 7 8 9 10 9 10 13 16 23 31 36 36 35
1 2 2 3 5 5 4 4 5 4 4 3 5 9 7 4 3 5 6 5 6 6 1 1 5 3 0 1 1 1 2 4 4 2 3 5 6 6 6 5 6 8 8 9 13 17 18 16 19 22 18 19 24 22 16 11 15 20 20 20 21 20 16 12 11 10 10 10 10 13 11 6 4 6 6 6 9 11 10 8 10 14 16 21 29 36 37 37
1 1 2 4 4 5 5 5 5 4 4 1 7 8 3 4 4 6 6 5 6 6 3 3 5 4 1 1 1 2 2 2 0 1 2 4 6 5 5 4 3 4 6 7 8 12 15 12 15 21 18 18 22 24 21 16 13 16 20 23 21 19 18 16 13 11 10 9 8 14 13 7 5 5 7 8 8 10 10 11 13 13 16 22 28 35 38 38
2 2 2 4 5 5 5 5 4 4 3 2 6 5 3 2 4 5 6 6 5 4 5 5 4 3 2 2 0 2 1 2 2 1 3 5 4 4 3 3 1 3 5 6 7 9 11 7 12 18 17 17 18 20 22 21 17 13 17 21 19 16 18 19 14 10 9 7 8 15 15 11 9 8 10 11 8 10 11 14 17 13 14 21 26 32 38 37
2 2 2 4 5 5 5 4 4 5 3 4 5 3 3 2 3 4 5 5 4 4 5 5 3 3 4 2 1 1 1 1 0 2 2 3 4 4 3 3 1 2 4 6 7 5 7 9 11 15 16 16 17 19 21 23 23 17 13 16 19 16 18 20 15 9 9 8 8 12 14 13 10 9 14 14 10 10 12 15 19 15 13 18 24 30 36 36
3 4 3 6 4 4 4 3 3 3 3 7 4 1 2 2 3 4 4 4 4 4 4 3 3 3 3 4 1 1 0 2 1 2 1 2 3 3 2 3 1 2 2 5 8 4 6 10 9 12 15 16 18 21 22 23 25 22 14 13 19 18 16 18 17 11 9 8 7 10 11 7 3 6 12 13 10 11 12 15 17 15 14 16 21 28 33 35
6 5 7 12 7 3 3 2 3 3 6 6 3 1 1 1 2 3 4 4 3 3 4 3 4 4 2 3 3 1 1 1 0 1 1 0 1 2 1 2 2 4 3 4 7 6 7 10 9 10 15 19 20 22 23 21 24 25 18 14 17 18 15 15 17 17 14 9 5 7 7 2 6 7 9 11 13 11 12 15 15 14 15 14 16 21 28 32
5 4 11 14 10 3 3 1 2 6 7 4 2 1 2 2 2 3 3 4 3 3 4 3 4 4 3 3 2 1 2 1 0 1 1 0 0 1 1 3 4 5 6 7 6 6 7 10 10 9 13 19 19 20 21 20 22 24 23 20 17 18 17 13 13 18 19 14 10 9 4 2 4 7 8 11 12 10 9 14 15 12 13 14 13 16 22 27
6 6 9 12 10 2 4 4 5 5 5 3 3 1 2 2 2 3 3 2 3 3 3 4 3 4 4 3 2 2 3 2 1 2 1 1 1 2 2 5 5 4 6 7 6 6 7 9 10 10 12 14 15 18 20 19 19 21 23 24 20 17 19 16 12 13 18 18 17 14 7 2 5 9 7 7 9 9 10 13 14 13 13 13 14 15 19 23
4 6 10 14 12 4 5 6 5 5 4 1 2 2 2 2 2 3 3 3 3 3 3 4 4 4 3 3 4 3 3 3 2 2 1 1 1 2 4 5 5 4 5 6 6 6 7 8 10 12 12 11 11 15 18 16 16 19 22 24 22 19 19 19 15 13 17 17 16 14 7 6 7 9 9 9 9 9 10 11 14 15 15 16 15 15 18 21
4 6 8 14 13 8 6 8 6 6 4 1 4 4 1 1 1 2 3 3 3 3 4 3 3 4 3 3 5 4 3 4 3 3 3 2 2 3 4 5 5 5 4 6 6 6 7 7 9 12 11 9 10 13 17 18 18 19 20 21 24 23 21 22 19 15 18 17 16 15 6 7 9 10 10 10 7 8 10 12 15 16 18 19 18 16 18 20
7 7 5 8 8 8 8 10 7 4 3 3 5 5 3 3 2 1 2 2 3 3 4 3 3 4 5 4 5 4 4 5 4 3 4 3 2 2 3 4 5 4 5 8 7 6 8 7 7 9 8 7 7 7 12 19 20 19 19 20 24 23 20 21 20 19 19 17 18 17 5 7 6 7 7 7 5 7 11 13 17 19 20 21 20 19 18 19
7 9 8 6 7 9 9 8 6 4 3 6 6 5 4 3 2 2 2 2 3 3 4 4 4 4 5 5 5 5 4 5 5 4 5 5 3 2 3 4 4 4 7 9 6 6 8 8 7 6 4 5 8 7 7 13 16 18 18 16 18 19 19 18 18 20 19 15 15 13 3 6 2 4 4 5 4 7 9 11 15 20 21 20 21 20 18 18
9 9 8 7 8 9 9 8 8 7 3 6 7 5 5 4 2 2 2 2 3 3 4 4 4 4 5 3 4 5 4 4 5 4 5 4 2 2 4 3 4 6 6 6 5 6 8 9 8 7 4 6 9 8 7 10 10 12 14 13 13 17 20 20 19 18 15 13 15 13 7 4 7 9 7 5 5 6 8 9 13 20 22 21 22 21 19 18
10 8 7 9 10 7 8 9 9 8 4 4 4 4 5 5 3 3 2 3 3 2 3 4 4 4 5 4 4 4 4 5 6 4 4 4 4 5 5 6 6 7 6 5 5 6 8 9 9 9 8 7 9 8 8 10 9 8 10 12 13 17 21 21 20 19 15 13 11 8 9 9 9 11 10 6 5 7 9 10 14 20 21 21 22 23 22 20
9 8 7 12 11 6 6 7 7 7 7 6 5 4 5 5 4 4 4 3 2 2 3 3 3 3 4 4 5 5 4 5 4 3 5 6 6 6 6 5 5 5 6 6 6 7 8 9 9 9 9 9 10 9 8 8 9 9 8 8 10 15 20 20 20 20 16 14 10 5 7 8 7 8 10 9 7 8 10 13 16 19 20 20 19 19 20 22
12 12 10 11 12 9 7 7 6 7 7 7 6 5 5 5 3 3 3 3 3 3 3 3 3 3 2 3 5 4 4 4 4 2 4 6 6 6 5 3 3 5 6 6 6 7 6 7 7 8 10 12 12 11 9 8 8 7 6 4 5 9 14 15 15 14 13 13 12 10 10 9 7 8 11 12 9 8 10 13 16 18 17 18 17 16 18 20
14 15 13 11 10 10 9 8 8 8 8 9 8 6 5 5 4 3 3 3 2 2 2 2 3 3 3 2 3 3 2 4 5 4 3 4 5 3 3 3 4 5 5 4 6 7 7 7 5 8 13 13 11 12 10 8 8 5 7 6 2 4 8 9 6 7 8 11 13 13 12 12 11 11 12 10 7 8 12 15 18 17 15 15 16 17 19 19
14 15 15 13 10 10 11 10 9 9 9 8 8 5 4 4 4 3 4 4 3 4 3 2 3 5 4 3 4 5 3 3 4 5 4 4 4 3 3 4 5 5 5 5 7 8 9 9 8 10 13 13 11 11 10 9 10 7 7 10 7 2 3 4 3 1 3 6 10 11 11 12 15 16 10 7 8 10 13 17 18 18 16 14 14 17 20 19
Wind_Direction
346 342 338 336 331 329 325 320 316 304 296 286 279 275 270 268 265 262 258 254 251 248 246 245 245 243 241 241 241 238 235 232 228 226 224 225 227 229 231 230 227 223 222 222 218 213 212 210 209 218 231 255 269 270 277 307 318 308 312 317 334 343 348 186 187 182 182 167 154 156 156 156 155 149 153 151 143 142 137 130 119 116 137 156 160 152 152 154
351 347 343 338 331 327 321 317 312 306 301 292 286 278 271 269 266 264 260 257 253 250 248 247 245 244 243 240 239 238 238 236 233 230 225 226 227 228 229 229 227 224 224 221 216 208 206 209 205 213 219 246 270 269 276 296 315 312 304 329 351 333 324 223 194 183 185 168 152 155 157 156 155 152 150 146 143 142 136 133 131 138 155 158 150 149 150 149
357 354 349 342 336 330 323 317 311 307 304 300 297 288 279 272 267 267 264 261 258 254 252 249 247 246 245 242 238 238 238 239 243 234 226 228 226 226 228 226 225 222 221 214 208 199 197 202 201 209 202 209 251 266 285 296 311 309 307 344 349 322 320 200 185 179 176 157 149 152 156 153 149 149 146 143 142 139 139 140 143 153 158 151 150 151 146 146
1 360 356 352 347 339 334 328 323 318 311 309 308 302 295 281 273 269 267 267 264 261 256 254 251 247 246 244 240 237 236 241 248 235 224 230 227 223 227 223 220 217 216 211 205 198 194 194 196 200 196 217 246 255 266 275 286 300 308 334 330 316 313 198 180 175 167 149 148 150 150 145 144 146 141 141 140 139 145 145 149 157 154 149 151 149 142 144
3 2 2 1 359 354 348 344 341 337 333 329 325 319 312 298 286 274 269 267 265 264 261 258 256 251 249 246 241 237 233 233 245 236 224 232 227 221 224 220 215 212 209 207 205 202 193 189 195 195 193 219 243 246 253 260 265 293 310 336 329 310 311 166 171 168 161 151 150 151 147 144 146 146 138 137 138 144 150 149 152 154 151 148 147 147 142 143
2 3 5 5 5 2 359 357 352 349 349 347 345 338 326 314 301 286 273 266 263 263 261 260 258 255 252 248 245 238 222 215 242 237 227 232 228 220 220 216 212 208 203 200 202 203 194 189 194 193 195 216 235 243 252 253 255 283 306 336 319 294 301 141 156 157 157 153 146 146 149 147 147 143 132 130 141 153 151 149 152 150 151 149 147 147 144 146
2 2 5 6 5 3 2 1 356 354 353 351 352 344 335 327 318 308 289 272 263 257 257 258 258 256 253 249 246 240 221 223 239 236 230 232 227 220 217 213 210 207 203 197 198 200 196 193 193 193 204 224 237 241 249 248 249 272 298 333 298 275 186 153 151 148 153 145 135 140 146 144 142 139 130 134 151 157 149 149 149 147 151 152 152 151 148 149
2 2 3 4 3 1 0 359 357 355 352 351 348 342 338 335 332 327 311 290 270 259 253 251 253 254 252 248 245 242 227 231 234 233 235 232 226 222 217 213 208 207 204 193 194 199 199 197 192 190 207 235 244 236 243 251 250 256 286 330 282 254 158 162 153 148 148 137 132 135 137 139 142 137 135 146 152 153 152 150 146 146 151 153 156 155 151 151
2 3 3 2 1 359 357 357 357 355 354 352 346 339 332 332 335 335 330 318 292 269 257 248 248 248 247 246 239 226 229 236 233 232 236 231 226 223 217 212 207 207 202 188 188 194 198 203 194 183 207 239 247 236 235 249 247 241 278 304 268 177 155 168 159 153 141 137 140 137 139 146 148 137 132 145 148 151 154 148 146 148 150 154 159 156 154 155
3 4 3 2 360 358 358 358 358 358 356 351 344 336 326 323 323 328 335 333 321 297 273 256 248 244 243 241 223 202 240 241 237 233 233 230 227 223 217 211 204 204 199 188 185 189 190 199 196 191 215 230 238 235 225 238 249 240 266 261 223 126 150 173 166 155 139 144 149 146 146 148 151 143 134 143 149 151 153 150 148 149 152 156 161 159 156 158
5 4 3 2 360 0 2 2 2 1 358 353 346 336 326 320 314 318 325 327 329 322 301 274 257 247 243 236 203 211 243 240 236 234 231 230 226 222 217 207 202 199 193 187 185 191 188 188 194 201 220 222 226 233 222 231 244 243 240 226 178 125 138 159 166 159 148 151 150 152 150 148 155 154 146 148 152 154 153 154 149 151 157 158 164 164 158 161
6 5 4 3 2 4 6 7 5 3 360 356 349 341 334 324 317 317 317 322 324 325 325 305 275 253 248 238 206 225 240 236 235 232 228 227 223 221 215 205 202 196 186 185 189 192 190 196 196 193 215 222 219 232 226 228 233 239 230 194 157 165 154 149 166 167 162 153 148 152 150 152 162 160 158 157 157 156 153 156 152 155 160 161 168 168 162 165
6 5 6 4 5 8 8 8 5 3 0 356 353 348 343 334 331 328 323 322 318 323 329 319 301 267 251 239 224 232 239 235 233 229 226 225 220 221 215 205 202 195 184 180 193 200 197 204 195 188 215 219 214 236 225 220 228 233 229 212 159 163 170 166 171 179 179 164 154 152 147 159 169 165 165 164 162 159 156 160 157 157 162 165 171 171 168 167
6 7 7 6 10 11 8 7 3 1 357 353 353 349 345 342 340 336 331 326 320 325 324 319 315 279 252 247 244 239 236 232 229 227 227 222 219 219 213 208 205 201 191 179 190 204 199 201 192 190 208 200 211 242 229 223 235 228 215 218 209 166 179 184 182 186 186 177 167 159 150 159 168 171 171 167 166 162 160 163 159 160 164 168 171 172 172 169
8 8 7 9 12 10 7 3 359 357 353 352 352 349 347 345 345 344 338 332 329 329 325 324 317 297 281 268 262 247 233 231 226 224 223 220 219 218 211 207 205 205 200 191 196 200 196 196 191 194 206 201 217 237 223 224 231 221 210 215 223 197 177 185 189 185 186 183 176 169 161 159 160 169 173 169 168 165 164 166 163 163 167 170 172 172 173 174
8 9 9 11 11 8 5 0 359 358 356 357 357 357 355 352 357 354 348 346 344 344 341 342 334 351 85 271 270 254 222 213 220 220 215 211 212 214 211 205 203 204 204 205 205 199 197 195 189 196 208 212 223 224 217 223 220 218 220 218 214 200 176 183 194 187 187 187 180 175 163 159 160 168 172 169 169 168 166 169 168 168 169 174 174 171 176 179
7 11 11 12 11 8 6 6 6 5 3 5 5 7 5 6 9 3 3 2 6 18 12 26 41 46 72 330 296 247 195 196 209 213 207 203 200 208 211 202 201 202 204 210 209 202 202 196 189 199 209 216 223 218 221 223 215 216 222 219 207 197 183 179 191 187 185 191 187 178 160 165 171 175 176 172 170 170 170 170 171 173 171 174 177 173 178 182
5 13 13 13 13 10 15 16 14 15 14 11 11 15 17 20 16 12 17 17 32 33 20 50 56 37 26 18 64 199 211 204 199 200 204 204 198 199 198 195 198 197 203 210 207 203 201 195 197 207 213 217 215 211 219 222 218 219 219 222 215 205 200 185 191 191 186 192 189 183 182 183 180 179 181 179 174 172 176 175 172 177 176 176 178 176 180 184
4 15 15 15 15 20 28 26 25 25 23 21 18 20 27 30 20 18 37 45 49 36 18 35 41 25 41 39 152 204 215 202 194 197 201 199 193 188 182 190 193 188 194 205 207 202 195 193 203 212 213 212 209 210 218 224 234 238 233 227 206 191 195 179 186 194 187 188 188 189 194 189 187 186 187 190 184 175 179 182 175 178 182 180 179 178 182 187
2 16 20 17 19 34 39 36 37 33 34 32 24 22 24 26 21 18 44 50 47 47 34 21 21 21 359 16 140 206 208 176 174 194 199 192 180 174 177 180 183 185 186 198 205 198 195 201 208 212 211 210 211 213 218 232 256 259 250 220 177 164 181 168 169 183 176 177 184 191 192 189 193 192 189 192 191 182 182 186 180 179 184 184 181 179 183 187
359 17 23 16 24 46 47 48 49 42 46 37 30 40 26 23 53 48 56 49 31 42 50 35 50 81 263 245 201 198 178 152 159 197 202 190 171 168 181 176 177 192 193 193 199 194 201 213 214 213 212 213 217 217 222 243 259 251 245 208 137 144 188 173 166 171 167 171 184 192 190 190 188 188 192 193 193 190 189 192 187 181 185 187 183 182 184 186
359 20 26 17 29 56 58 62 62 54 55 41 41 49 28 40 83 80 85 85 16 29 36 26 35 26 350 336 210 168 162 172 176 194 199 181 169 173 194 193 188 198 196 192 194 193 205 216 217 213 212 217 221 220 223 242 247 240 242 216 132 162 179 162 179 179 175 181 187 190 187 188 183 183 193 194 194 195 195 200 196 187 187 188 186 185 183 186
4 19 30 24 33 71 72 74 71 66 63 52 52 53 38 70 84 88 89 88 359 33 34 23 34 18 352 352 2 144 156 185 176 188 200 175 170 185 204 202 198 201 196 196 197 196 206 215 215 212 214 219 218 215 220 232 237 236 238 221 184 198 185 178 202 196 190 186 184 190 188 195 192 181 185 186 189 195 195 198 199 195 192 188 187 189 186 186
7 17 41 36 53 87 89 88 77 73 67 58 56 55 64 84 88 103 86 62 181 54 36 44 59 54 16 7 111 126 156 194 178 197 195 161 176 205 208 200 203 207 200 200 204 206 213 213 212 213 212 213 210 211 219 224 230 234 237 234 209 210 217 217 210 200 198 196 199 190 175 186 196 185 181 181 183 192 195 196 199 200 197 189 184 190 191 188
9 27 55 53 93 112 111 96 80 78 67 52 44 40 57 78 94 116 81 140 157 54 17 43 58 19 16 61 112 113 188 207 178 200 183 152 185 211 205 203 207 209 205 204 209 218 221 209 210 214 206 205 209 215 219 221 229 232 231 244 239 212 215 215 201 195 205 209 206 192 170 180 198 198 193 189 185 188 193 196 197 196 198 194 186 188 193 191
9 49 81 83 117 141 123 97 91 80 52 24 26 27 42 59 54 69 339 252 150 57 23 52 50 9 24 71 113 96 207 187 163 197 191 171 194 212 201 202 207 212 212 207 211 222 220 205 206 209 200 205 215 221 221 216 227 235 221 220 242 203 197 195 189 198 221 219 198 206 210 183 193 208 206 196 190 188 191 194 193 192 195 196 192 191 193 193
359 105 116 111 137 157 132 104 99 80 43 332 20 50 45 43 334 360 314 258 105 51 25 43 29 32 68 102 131 41 196 175 169 196 198 184 189 212 208 197 205 220 212 199 208 219 215 201 200 202 200 208 216 219 218 211 223 242 218 198 207 210 200 195 197 212 231 233 192 213 228 211 205 213 208 199 193 192 196 195 193 194 196 196 197 196 194 195
336 146 140 132 144 163 153 119 94 85 93 251 110 67 44 32 352 337 298 285 64 42 18 30 343 12 97 134 167 274 186 175 195 192 187 193 182 191 210 199 206 218 203 199 209 209 205 201 201 207 210 212 214 214 211 208 219 239 209 196 211 222 216 210 213 220 230 239 222 209 214 234 227 191 189 198 196 193 198 198 196 198 199 198 199 197 195 196
319 178 165 144 147 168 167 135 105 96 104 107 96 68 29 345 338 295 276 329 61 51 37 15 307 19 137 227 206 239 206 195 230 188 181 211 195 192 210 206 212 219 204 210 217 197 194 206 208 210 213 214 213 212 209 209 214 216 205 218 222 225 221 213 219 228 231 240 245 220 205 231 225 165 174 187 192 193 198 200 200 201 201 199 197 196 196 197
312 204 182 155 154 168 171 152 123 105 100 85 79 70 33 347 300 270 280 357 34 22 35 22 325 44 211 235 205 208 208 188 245 184 185 212 200 196 205 194 208 220 208 217 226 216 201 208 209 210 214 213 211 211 209 210 214 212 221 224 219 222 222 217 227 241 241 240 248 237 214 222 230 185 181 187 193 197 196 196 199 199 198 197 196 195 195 196
297 219 198 178 164 169 177 168 140 116 97 72 63 47 10 326 273 272 5 18 323 343 10 34 2 298 256 262 227 202 211 198 189 186 190 204 199 199 204 196 207 215 206 214 221 219 206 205 208 210 210 209 212 213 206 209 218 219 226 223 213 213 216 221 231 242 249 244 246 239 224 225 237 225 205 202 204 201 194 195 200 197 197 199 197 195 194 195
279 226 218 195 167 169 180 171 158 133 95 84 59 37 336 286 275 321 12 348 287 346 3 5 6 321 251 258 231 181 207 192 171 191 198 211 209 206 206 204 211 213 205 203 205 204 203 208 213 210 206 206 212 211 202 207 222 217 218 223 216 205 202 219 230 228 237 242 249 241 223 228 240 238 221 213 195 196 199 202 203 199 200 201 199 196 194 193
254 232 230 201 174 170 178 173 167 146 104 98 60 25 298 287 336 9 352 359 8 11 9 358 7 16 234 219 183 205 221 162 162 206 202 217 221 219 218 221 231 232 225 209 203 200 199 206 208 205 204 200 199 201 197 203 218 214 212 219 222 213 200 217 226 224 235 240 244 237 227 241 240 229 219 205 171 189 206 206 202 201 203 203 201 196 193 194
233 244 235 195 186 180 177 170 155 148 121 87 9 296 282 303 20 346 333 28 23 335 354 359 294 247 265 250 200 248 248 316 312 227 202 215 220 220 223 229 240 242 244 227 214 208 204 207 203 198 201 198 195 202 202 201 211 212 213 220 229 229 221 227 229 224 232 238 233 217 222 254 233 176 164 188 172 178 193 198 195 194 197 200 201 196 193 198
234 238 210 196 200 192 179 162 141 142 127 76 316 286 288 333 11 350 353 18 349 324 346 307 288 275 6 17 356 329 312 329 315 241 213 207 206 220 225 223 240 236 227 238 235 218 215 223 210 197 197 198 200 208 213 210 208 207 212 223 229 228 225 238 251 254 258 255 237 216 215 233 200 162 143 161 183 183 175 175 184 188 188 190 197 197 196 200
219 192 205 206 206 198 178 152 144 151 135 74 299 300 1 12 351 1 354 334 330 333 322 293 289 295 341 269 311 4 332 334 350 208 194 181 196 218 219 207 236 243 225 244 259 233 226 226 196 189 196 198 201 208 210 216 214 198 205 219 226 227 228 236 246 256 272 270 239 229 223 184 157 197 181 171 192 192 180 180 183 188 190 187 192 197 197 199
183 157 198 211 210 204 175 153 151 135 127 266 294 328 17 355 344 353 342 332 328 310 309 310 289 291 302 259 121 31 280 162 128 194 179 183 193 188 214 229 225 270 256 248 261 253 245 226 169 180 202 200 199 207 209 217 226 210 205 214 219 223 228 234 239 235 245 257 235 233 229 200 193 207 187 183 196 193 188 190 190 190 191 189 192 196 196 197
171 135 188 225 220 204 173 160 154 124 116 286 291 311 308 322 13 350 338 334 320 297 306 309 278 270 290 301 81 65 310 103 21 281 157 163 173 169 257 300 171 268 279 240 241 245 249 240 193 191 209 201 195 204 207 213 225 233 230 213 207 214 220 225 235 233 229 242 236 231 231 224 216 189 176 185 200 197 195 199 196 190 188 188 189 194 196 197
97 104 203 256 250 208 201 169 142 150 251 279 276 214 270 339 21 346 339 334 316 311 315 310 290 274 286 312 340 137 350 28 325 268 169 128 139 154 284 314 205 307 323 236 241 226 231 245 218 201 209 201 195 203 206 207 213 227 245 221 209 220 223 219 225 234 238 243 241 233 230 224 185 160 176 189 200 196 191 201 203 190 187 193 191 195 199 200
94 110 224 264 281 225 205 136 125 247 264 268 275 231 252 314 3 349 346 337 311 304 317 319 301 298 300 303 311 358 306 314 334 256 253 243 134 133 288 309 293 299 314 269 253 231 234 242 231 220 209 197 195 203 205 204 204 210 222 219 211 218 224 225 224 226 233 241 241 237 230 140 103 131 147 163 186 196 186 194 201 182 174 185 190 196 203 203
125 179 233 262 277 232 174 165 235 260 261 239 218 260 252 242 332 342 332 338 329 300 310 316 306 308 303 291 306 336 276 264 148 297 294 253 39 75 285 297 302 286 288 286 246 223 255 251 238 236 212 197 199 204 206 209 206 204 210 215 215 214 215 223 223 220 229 239 242 240 231 86 134 163 137 145 180 201 193 194 199 182 168 174 180 189 196 201
136 211 235 258 271 210 171 243 260 252 256 214 166 182 286 245 294 313 298 320 325 292 289 296 295 298 294 297 316 291 271 276 278 274 263 98 45 36 294 298 317 294 280 278 251 244 272 262 246 241 227 217 214 207 206 212 211 208 211 216 222 218 212 221 227 218 223 231 238 244 235 151 199 200 182 185 200 208 205 197 192 182 174 176 178 182 187 193
138 252 262 265 261 203 183 241 249 232 248 278 202 241 300 258 276 318 308 304 310 307 304 293 282 291 295 289 296 288 256 238 237 261 273 177 168 243 280 306 320 302 279 271 267 266 262 254 245 241 243 248 231 207 202 207 212 215 213 212 221 222 214 223 235 235 233 228 230 241 224 161 191 204 206 223 223 211 204 193 183 175 172 178 181 183 186 187
223 253 271 269 247 191 202 255 258 225 220 250 232 229 230 198 225 344 348 329 316 308 307 298 274 291 309 291 285 293 272 251 241 251 251 195 176 255 294 315 310 303 292 269 262 267 268 266 250 239 241 241 221 203 201 204 210 219 214 208 216 223 222 224 228 240 246 233 225 239 227 150 185 215 229 237 225 198 192 185 181 174 168 174 179 180 185 186
225 224 235 265 238 198 229 263 272 245 210 206 220 217 208 211 230 292 322 317 312 302 291 292 284 285 301 292 273 270 265 264 266 256 246 229 220 260 301 324 323 317 282 259 246 253 272 282 260 241 241 233 222 217 209 204 204 213 218 214 214 221 232 229 221 228 238 231 228 240 225 128 173 225 234 236 221 203 200 189 184 179 172 172 174 174 178 183
220 229 222 236 231 224 240 247 245 254 224 204 210 212 214 224 259 281 280 285 297 301 287 287 288 275 282 283 270 263 252 260 273 262 244 242 231 234 283 321 333 308 269 253 242 249 263 274 270 254 252 235 244 267 234 206 208 214 219 222 218 219 227 228 225 228 232 234 237 240 184 112 183 261 227 213 220 214 211 203 190 182 179 178 175 173 176 180
204 233 236 216 205 217 233 223 221 240 232 201 207 207 217 240 264 253 264 300 297 291 271 272 277 269 278 287 269 262 247 258 277 259 244 257 253 253 276 293 313 317 297 257 249 261 263 263 253 233 208 199 221 241 221 206 222 225 222 230 230 221 219 222 230 231 226 232 238 231 212 217 269 274 252 233 234 211 206 209 190 178 179 183 180 177 178 178
212 250 255 210 186 199 229 214 209 230 233 210 217 220 230 245 242 235 273 321 318 295 263 267 270 262 277 289 270 266 256 255 264 248 241 272 280 268 274 268 273 308 316 272 255 267 271 263 236 215 209 197 199 208 205 210 225 224 222 232 229 223 220 222 233 235 235 251 259 237 226 237 251 250 239 239 235 197 192 201 188 177 177 181 181 181 182 183
216 248 242 212 203 220 239 208 200 227 225 218 232 232 231 243 237 239 268 295 297 285 271 273 270 256 273 273 260 271 275 258 263 249 238 268 284 279 284 276 259 283 302 280 263 265 268 261 238 222 222 215 207 203 201 215 221 205 205 226 224 221 221 223 233 237 239 254 263 245 227 221 204 205 216 238 239 199 193 199 186 177 176 177 179 180 182 189
207 218 213 208 216 234 236 215 216 227 215 214 229 226 223 243 249 234 248 271 279 279 267 259 254 251 277 268 249 263 270 250 266 282 251 268 282 272 274 294 287 292 297 283 267 268 265 256 243 233 234 228 214 205 201 209 214 189 169 187 201 209 212 218 235 241 238 243 241 232 228 215 194 206 226 241 237 194 187 191 179 175 178 176 176 180 185 192
209 211 206 204 216 224 220 216 219 225 225 225 228 224 218 229 238 223 234 262 267 241 246 259 246 237 251 258 241 247 254 242 255 267 256 270 289 278 266 293 307 308 306 288 270 265 259 254 234 218 229 227 208 202 203 205 207 164 88 72 105 186 198 198 216 238 236 236 229 220 215 201 194 213 225 224 204 169 169 177 174 171 172 174 181 193 198 197
211 211 211 212 218 219 217 217 217 225 232 218 204 208 220 221 224 234 253 271 253 214 223 246 242 246 254 234 217 231 245 241 246 249 240 250 278 284 273 289 309 311 307 298 282 265 257 261 255 231 226 220 210 212 211 214 214 179 77 35 29 41 198 166 140 181 211 226 225 206 190 193 209 223 218 172 164 175 176 177 176 169 165 171 188 205 208 202
Height
3153 3152 3152 3151 3150 3150 3149 3149 3149 3148 3148 3148 3147 3147 3147 3147 3147 3146 3146 3146 3146 3146 3147 3147 3148 3148 3149 3150 3151 3151 3152 3152 3153 3153 3154 3154 3154 3156 3157 3158 3160 3161 3162 3162 3164 3165 3166 3167 3167 3167 3168 3168 3169 3169 3170 3169 3169 3169 3169 3169 3168 3167 3167 3167 3166 3166 3167 3166 3168 3170 3171 3173 3174 3175 3177 3178 3180 3182 3184 3186 3188 3190 3192 3193 3193 3195 3197 3198
3153 3152 3151 3150 3150 3149 3149 3148 3147 3147 3147 3147 3147 3146 3146 3146 3146 3145 3145 3145 3145 3145 3146 3146 3146 3147 3147 3149 3149 3150 3151 3151 3152 3152 3153 3153 3154 3155 3156 3158 3159 3160 3161 3162 3163 3165 3166 3166 3167 3167 3168 3169 3170 3170 3170 3169 3169 3169 3169 3169 3168 3166 3166 3165 3165 3165 3166 3167 3169 3171 3172 3174 3175 3176 3177 3179 3180 3182 3184 3187 3189 3191 3191 3192 3193 3195 3197 3199
3152 3151 3151 3150 3149 3149 3148 3147 3147 3146 3146 3146 3146 3146 3146 3145 3145 3145 3144 3144 3144 3144 3144 3145 3145 3145 3146 3147 3148 3149 3150 3151 3151 3151 3151 3152 3153 3154 3155 3157 3158 3159 3160 3162 3163 3164 3165 3166 3167 3167 3168 3170 3171 3170 3170 3170 3169 3170 3169 3169 3168 3166 3164 3164 3164 3165 3166 3167 3170 3172 3173 3175 3176 3177 3178 3180 3182 3183 3185 3187 3188 3190 3191 3192 3194 3196 3198 3200
3152 3151 3150 3149 3149 3148 3147 3147 3146 3146 3145 3145 3145 3145 3145 3144 3144 3144 3144 3144 3144 3144 3144 3144 3144 3144 3145 3146 3147 3148 3149 3151 3149 3149 3151 3151 3152 3154 3155 3156 3157 3158 3160 3161 3162 3163 3164 3165 3166 3167 3169 3171 3172 3171 3171 3171 3170 3170 3169 3169 3168 3165 3163 3163 3163 3165 3166 3167 3170 3172 3174 3175 3176 3178 3179 3181 3183 3184 3186 3188 3189 3190 3191 3193 3194 3196 3199 3200
3151 3150 3150 3149 3148 3148 3147 3146 3146 3145 3145 3145 3144 3144 3144 3143 3143 3143 3143 3143 3143 3143 3143 3143 3143 3143 3144 3144 3146 3147 3149 3151 3147 3147 3150 3149 3151 3153 3154 3155 3156 3158 3159 3160 3162 3163 3163 3165 3166 3167 3168 3171 3173 3172 3171 3171 3170 3170 3169 3169 3169 3164 3163 3163 3163 3165 3167 3167 3170 3173 3175 3176 3176 3178 3180 3182 3184 3186 3187 3188 3190 3191 3192 3194 3196 3198 3199 3201
3151 3150 3149 3149 3148 3147 3147 3146 3146 3145 3145 3144 3144 3143 3143 3142 3142 3142 3142 3142 3142 3142 3142 3142 3142 3142 3143 3143 3145 3146 3148 3148 3144 3145 3148 3148 3150 3152 3153 3154 3155 3157 3158 3159 3161 3162 3163 3165 3166 3167 3168 3171 3173 3172 3172 3171 3170 3170 3169 3170 3169 3165 3163 3164 3164 3166 3167 3168 3171 3174 3175 3176 3177 3179 3181 3183 3185 3186 3187 3189 3190 3192 3194 3195 3197 3199 3200 3202
3151 3150 3149 3149 3148 3147 3147 3146 3145 3145 3144 3144 3144 3143 3142 3142 3141 3141 3141 3141 3140 3140 3141 3141 3141 3141 3142 3143 3143 3144 3147 3146 3142 3144 3147 3147 3150 3151 3151 3153 3155 3156 3157 3158 3160 3162 3163 3164 3166 3168 3170 3171 3172 3172 3171 3170 3169 3170 3170 3171 3169 3165 3164 3165 3166 3167 3168 3169 3172 3175 3176 3177 3178 3179 3181 3183 3185 3186 3187 3189 3191 3193 3194 3196 3198 3200 3201 3202
3151 3150 3149 3148 3148 3147 3146 3146 3145 3145 3144 3144 3143 3143 3142 3142 3141 3141 3140 3140 3139 3139 3139 3139 3140 3140 3140 3142 3142 3144 3146 3143 3141 3144 3146 3147 3149 3150 3150 3152 3154 3156 3156 3158 3160 3162 3163 3164 3166 3168 3171 3172 3172 3172 3170 3169 3170 3170 3171 3171 3167 3165 3166 3166 3167 3168 3169 3170 3172 3175 3177 3179 3179 3180 3181 3183 3185 3186 3188 3190 3191 3193 3195 3197 3199 3200 3202 3203
3151 3150 3149 3148 3147 3147 3146 3145 3145 3144 3144 3144 3143 3143 3142 3141 3141 3140 3140 3139 3139 3138 3138 3138 3138 3138 3139 3140 3141 3144 3143 3140 3142 3144 3144 3146 3148 3149 3150 3151 3154 3155 3156 3158 3159 3161 3163 3165 3166 3168 3171 3172 3171 3171 3170 3170 3169 3169 3172 3171 3167 3166 3166 3166 3168 3168 3169 3171 3172 3175 3176 3178 3179 3180 3182 3183 3185 3187 3188 3190 3192 3194 3196 3198 3200 3201 3203 3204
3151 3150 3149 3148 3147 3147 3146 3145 3145 3144 3144 3143 3143 3142 3142 3141 3141 3140 3139 3139 3138 3138 3137 3137 3137 3137 3138 3139 3141 3143 3140 3139 3142 3142 3143 3145 3146 3148 3149 3151 3153 3155 3156 3157 3159 3161 3162 3165 3167 3168 3169 3170 3170 3170 3170 3170 3169 3169 3171 3169 3166 3167 3167 3167 3169 3170 3171 3172 3173 3175 3176 3177 3179 3180 3182 3183 3186 3187 3189 3191 3193 3195 3197 3199 3201 3202 3204 3205
3151 3150 3149 3148 3148 3147 3146 3145 3145 3144 3143 3143 3142 3142 3141 3141 3140 3140 3139 3139 3138 3137 3137 3137 3136 3137 3137 3138 3140 3140 3137 3138 3140 3141 3142 3144 3146 3147 3148 3150 3152 3154 3155 3157 3158 3160 3162 3164 3166 3168 3169 3169 3170 3170 3170 3169 3168 3169 3170 3167 3166 3168 3168 3168 3170 3171 3173 3173 3174 3175 3176 3177 3179 3180 3182 3184 3186 3188 3190 3191 3193 3196 3198 3200 3201 3202 3204 3206
3151 3150 3149 3149 3148 3147 3146 3145 3144 3144 3143 3142 3142 3141 3141 3140 3140 3139 3139 3138 3138 3137 3137 3136 3136 3136 3136 3137 3138 3136 3135 3138 3139 3140 3142 3143 3145 3146 3147 3149 3151 3153 3155 3157 3158 3159 3161 3163 3164 3166 3168 3168 3169 3170 3169 3168 3168 3169 3169 3167 3168 3168 3168 3169 3170 3172 3173 3174 3175 3175 3177 3178 3179 3180 3182 3184 3186 3188 3190 3192 3194 3197 3199 3200 3202 3203 3204 3206
3151 3150 3150 3149 3148 3147 3146 3145 3144 3144 3143 3142 3142 3141 3141 3140 3139 3139 3138 3138 3137 3137 3137 3136 3135 3135 3136 3136 3135 3134 3135 3137 3138 3139 3141 3142 3144 3145 3147 3148 3150 3152 3153 3156 3159 3159 3160 3161 3161 3164 3166 3167 3170 3169 3167 3167 3168 3169 3169 3168 3169 3169 3169 3170 3171 3173 3173 3174 3175 3176 3178 3179 3180 3181 3182 3185 3187 3189 3191 3192 3194 3197 3199 3200 3201 3203 3205 3206
3151 3150 3150 3149 3148 3147 3146 3145 3145 3144 3143 3142 3142 3141 3141 3140 3139 3139 3138 3137 3137 3137 3136 3136 3135 3135 3135 3135 3134 3134 3136 3136 3137 3139 3140 3142 3143 3145 3146 3148 3149 3151 3152 3154 3157 3157 3157 3159 3160 3162 3163 3165 3167 3166 3165 3167 3168 3169 3169 3168 3169 3170 3170 3171 3172 3173 3174 3174 3175 3176 3177 3178 3179 3181 3182 3185 3187 3189 3191 3192 3194 3197 3199 3200 3201 3203 3205 3206
3151 3151 3150 3149 3148 3147 3147 3146 3145 3144 3143 3143 3142 3141 3141 3140 3139 3139 3138 3137 3136 3136 3135 3135 3135 3134 3135 3135 3134 3134 3135 3136 3137 3138 3139 3141 3143 3144 3145 3147 3149 3151 3152 3154 3155 3156 3156 3158 3159 3161 3163 3164 3164 3164 3166 3168 3167 3168 3168 3167 3168 3169 3170 3172 3173 3174 3174 3175 3175 3175 3176 3177 3179 3181 3183 3185 3187 3189 3191 3193 3194 3197 3199 3200 3201 3203 3205 3206
3151 3151 3150 3149 3148 3148 3147 3146 3145 3144 3143 3143 3142 3141 3140 3140 3139 3138 3138 3137 3136 3136 3135 3135 3135 3134 3136 3136 3134 3134 3136 3136 3137 3137 3139 3141 3142 3144 3145 3147 3149 3150 3152 3153 3154 3155 3157 3158 3159 3161 3164 3165 3165 3166 3167 3166 3165 3166 3166 3166 3165 3167 3170 3172 3173 3173 3175 3175 3175 3175 3176 3177 3179 3181 3183 3185 3187 3189 3191 3193 3195 3196 3198 3200 3201 3203 3205 3206
3152 3151 3150 3150 3149 3148 3147 3146 3145 3145 3144 3143 3142 3141 3141 3140 3139 3139 3138 3137 3136 3136 3135 3135 3135 3135 3136 3136 3135 3136 3136 3136 3136 3137 3139 3140 3142 3144 3145 3147 3148 3150 3152 3153 3155 3156 3157 3158 3160 3161 3163 3164 3165 3166 3165 3163 3163 3163 3164 3165 3164 3166 3168 3170 3171 3172 3174 3175 3176 3176 3177 3178 3179 3180 3182 3184 3186 3189 3191 3193 3194 3196 3198 3200 3201 3203 3205 3206
3152 3151 3151 3150 3149 3148 3147 3147 3146 3145 3144 3143 3142 3141 3141 3140 3140 3139 3138 3137 3137 3136 3137 3136 3136 3137 3137 3137 3137 3137 3136 3136 3137 3138 3139 3140 3142 3143 3145 3147 3148 3150 3152 3153 3155 3156 3157 3159 3160 3162 3162 3163 3163 3164 3163 3160 3161 3162 3163 3163 3164 3166 3168 3168 3169 3170 3172 3175 3176 3176 3177 3178 3179 3180 3182 3184 3186 3188 3191 3193 3194 3196 3198 3199 3201 3203 3204 3206
3152 3152 3151 3150 3149 3148 3148 3147 3146 3145 3144 3143 3143 3142 3142 3141 3141 3140 3139 3138 3137 3138 3139 3138 3138 3138 3138 3138 3138 3137 3136 3136 3137 3138 3139 3141 3142 3144 3145 3147 3148 3150 3152 3154 3155 3156 3158 3159 3160 3161 3161 3161 3161 3162 3161 3160 3161 3161 3161 3163 3163 3165 3168 3168 3168 3169 3171 3174 3176 3177 3178 3178 3179 3180 3182 3184 3185 3187 3190 3192 3193 3196 3197 3199 3200 3202 3204 3205
3153 3152 3151 3151 3150 3149 3148 3148 3147 3146 3145 3144 3144 3143 3142 3142 3142 3142 3140 3139 3139 3139 3140 3140 3139 3140 3140 3139 3138 3137 3136 3136 3138 3140 3140 3141 3143 3145 3146 3147 3149 3151 3153 3155 3155 3156 3158 3159 3159 3159 3159 3160 3160 3161 3160 3161 3161 3160 3160 3162 3162 3165 3168 3168 3168 3169 3171 3174 3176 3177 3178 3178 3178 3179 3181 3183 3185 3187 3189 3191 3192 3194 3196 3198 3200 3202 3203 3205
3153 3152 3152 3151 3150 3149 3149 3148 3148 3147 3146 3146 3145 3143 3144 3144 3144 3143 3141 3141 3142 3141 3141 3140 3139 3140 3140 3139 3138 3138 3138 3138 3140 3141 3140 3141 3144 3146 3147 3148 3150 3151 3153 3155 3156 3157 3158 3157 3157 3158 3159 3160 3160 3161 3161 3162 3162 3161 3161 3161 3162 3165 3167 3167 3169 3169 3171 3174 3176 3177 3177 3178 3178 3178 3180 3182 3184 3186 3188 3190 3191 3194 3196 3197 3199 3201 3203 3204
3152 3152 3152 3151 3150 3150 3149 3149 3148 3148 3147 3147 3145 3144 3146 3145 3144 3143 3142 3143 3145 3142 3141 3140 3139 3140 3139 3137 3137 3137 3139 3141 3141 3141 3141 3142 3145 3147 3148 3149 3151 3152 3153 3155 3156 3156 3156 3156 3156 3158 3159 3160 3160 3161 3162 3162 3162 3162 3161 3160 3161 3165 3167 3168 3169 3170 3171 3173 3174 3176 3176 3177 3178 3179 3179 3181 3184 3186 3188 3189 3191 3193 3195 3197 3199 3200 3202 3204
3152 3152 3152 3151 3151 3150 3150 3149 3149 3149 3148 3148 3146 3145 3147 3146 3144 3144 3142 3143 3145 3143 3143 3142 3141 3142 3140 3138 3137 3136 3140 3142 3142 3142 3142 3143 3146 3147 3148 3149 3151 3152 3153 3154 3154 3154 3155 3155 3156 3157 3158 3159 3160 3161 3162 3163 3162 3161 3161 3159 3161 3165 3167 3168 3169 3170 3172 3173 3174 3175 3176 3176 3177 3179 3180 3181 3184 3185 3186 3189 3191 3192 3194 3196 3198 3200 3201 3203
3152 3152 3152 3152 3151 3150 3150 3150 3150 3150 3149 3149 3148 3147 3148 3147 3145 3145 3142 3143 3145 3144 3143 3143 3142 3143 3141 3140 3138 3137 3141 3143 3143 3143 3142 3143 3146 3147 3148 3149 3151 3151 3152 3152 3153 3154 3153 3154 3156 3157 3157 3158 3159 3160 3162 3162 3161 3160 3160 3159 3159 3162 3165 3166 3168 3170 3171 3172 3173 3174 3176 3176 3175 3177 3179 3180 3182 3183 3184 3187 3189 3191 3193 3194 3196 3199 3201 3202
3152 3152 3152 3152 3151 3151 3150 3150 3151 3151 3150 3150 3149 3149 3148 3147 3146 3145 3144 3144 3145 3144 3142 3142 3142 3142 3141 3140 3139 3139 3142 3144 3143 3143 3142 3143 3147 3147 3148 3149 3149 3150 3151 3152 3153 3153 3153 3154 3155 3155 3156 3158 3159 3160 3161 3161 3161 3159 3159 3159 3159 3160 3163 3165 3166 3169 3170 3170 3171 3172 3175 3176 3175 3176 3178 3177 3179 3180 3182 3185 3188 3190 3192 3193 3195 3197 3199 3201
3152 3152 3152 3151 3151 3151 3151 3151 3151 3151 3151 3151 3150 3150 3149 3148 3147 3146 3146 3143 3143 3144 3143 3143 3143 3142 3141 3141 3140 3141 3143 3143 3143 3143 3142 3144 3145 3146 3148 3149 3148 3149 3150 3152 3152 3152 3152 3152 3153 3154 3156 3158 3159 3159 3160 3161 3160 3157 3156 3159 3161 3160 3162 3163 3164 3167 3167 3166 3168 3170 3171 3174 3176 3176 3176 3176 3177 3178 3180 3183 3185 3187 3189 3191 3193 3195 3197 3199
3151 3151 3151 3151 3151 3151 3151 3151 3151 3151 3153 3152 3151 3150 3149 3149 3147 3147 3146 3141 3140 3144 3145 3145 3144 3142 3142 3142 3142 3143 3143 3143 3144 3143 3143 3144 3144 3146 3146 3147 3148 3148 3149 3151 3151 3150 3150 3151 3153 3154 3156 3157 3158 3158 3159 3160 3160 3156 3155 3158 3161 3161 3162 3163 3164 3165 3165 3165 3167 3168 3168 3170 3173 3174 3175 3175 3176 3177 3178 3179 3182 3183 3185 3188 3191 3193 3195 3197
3151 3151 3151 3151 3151 3151 3151 3151 3151 3152 3153 3152 3151 3150 3150 3149 3148 3148 3146 3141 3141 3145 3145 3145 3144 3143 3143 3143 3142 3143 3143 3143 3143 3143 3144 3144 3144 3146 3146 3147 3148 3148 3149 3150 3149 3148 3149 3150 3153 3154 3155 3156 3157 3157 3158 3159 3159 3157 3157 3159 3161 3162 3162 3163 3164 3165 3165 3165 3164 3165 3166 3167 3167 3169 3173 3175 3174 3174 3174 3175 3177 3179 3182 3185 3188 3191 3193 3196
3151 3151 3151 3151 3151 3151 3151 3152 3152 3152 3152 3152 3151 3151 3150 3149 3148 3149 3146 3142 3142 3145 3145 3144 3143 3143 3144 3144 3143 3144 3143 3144 3144 3143 3144 3145 3144 3144 3145 3146 3148 3148 3148 3149 3147 3148 3149 3151 3153 3154 3154 3155 3156 3157 3158 3159 3159 3159 3160 3161 3161 3162 3161 3163 3164 3163 3164 3163 3161 3162 3163 3164 3164 3165 3169 3172 3171 3170 3171 3173 3175 3177 3179 3182 3185 3188 3191 3194
3151 3151 3151 3151 3151 3151 3151 3152 3152 3152 3152 3152 3151 3151 3150 3149 3149 3148 3144 3142 3143 3144 3144 3144 3144 3143 3144 3143 3143 3144 3144 3144 3144 3144 3144 3145 3144 3144 3144 3145 3147 3147 3148 3148 3147 3148 3149 3150 3152 3153 3153 3154 3156 3157 3158 3159 3159 3160 3162 3162 3162 3162 3161 3162 3162 3162 3161 3160 3159 3160 3161 3162 3162 3163 3166 3167 3167 3167 3168 3171 3173 3175 3177 3180 3182 3185 3188 3192
3150 3151 3151 3151 3151 3151 3151 3152 3152 3153 3152 3152 3152 3151 3150 3149 3148 3144 3142 3144 3145 3144 3143 3144 3144 3144 3144 3143 3143 3143 3144 3144 3144 3144 3145 3145 3145 3145 3145 3146 3146 3146 3147 3147 3146 3147 3149 3149 3150 3152 3152 3153 3155 3156 3157 3159 3159 3160 3162 3162 3161 3160 3160 3161 3162 3162 3161 3157 3157 3157 3158 3160 3159 3160 3162 3163 3164 3165 3165 3168 3170 3172 3174 3177 3179 3182 3185 3189
3150 3150 3151 3151 3151 3151 3151 3152 3153 3153 3153 3153 3152 3151 3150 3149 3146 3143 3143 3144 3145 3144 3144 3144 3144 3144 3144 3143 3142 3142 3143 3143 3143 3144 3145 3145 3145 3145 3145 3145 3145 3144 3143 3144 3144 3146 3148 3149 3150 3151 3151 3152 3154 3153 3155 3158 3159 3160 3161 3161 3158 3156 3158 3162 3161 3160 3158 3155 3155 3156 3157 3158 3157 3157 3159 3160 3162 3164 3164 3166 3168 3169 3172 3174 3177 3180 3183 3187
3150 3150 3151 3151 3151 3151 3151 3152 3153 3153 3153 3153 3152 3152 3151 3148 3146 3146 3145 3144 3145 3145 3145 3145 3145 3145 3144 3142 3142 3143 3143 3142 3143 3144 3145 3145 3145 3145 3145 3145 3144 3143 3142 3142 3142 3143 3145 3147 3148 3149 3150 3151 3152 3151 3152 3156 3158 3158 3159 3160 3156 3151 3156 3161 3158 3156 3155 3153 3154 3156 3156 3156 3154 3156 3158 3159 3162 3164 3162 3164 3166 3167 3170 3172 3175 3178 3181 3185
3150 3150 3151 3151 3151 3151 3152 3152 3153 3153 3153 3153 3152 3152 3151 3148 3146 3146 3145 3145 3147 3146 3145 3146 3145 3144 3144 3143 3143 3144 3144 3143 3143 3143 3144 3145 3145 3146 3145 3145 3144 3143 3143 3143 3140 3139 3141 3143 3145 3147 3148 3149 3151 3151 3151 3155 3157 3157 3158 3159 3156 3151 3154 3157 3154 3152 3152 3151 3152 3154 3156 3155 3153 3156 3158 3159 3162 3163 3162 3162 3164 3166 3168 3170 3174 3177 3180 3183
3150 3150 3150 3151 3151 3151 3152 3152 3153 3153 3153 3153 3153 3152 3150 3148 3147 3147 3146 3147 3148 3146 3145 3146 3145 3143 3143 3144 3144 3144 3144 3144 3144 3144 3144 3145 3146 3146 3145 3145 3144 3144 3144 3143 3140 3138 3138 3139 3140 3143 3146 3147 3149 3151 3152 3154 3154 3155 3158 3158 3155 3153 3154 3155 3154 3152 3152 3151 3150 3152 3153 3154 3154 3156 3158 3160 3162 3162 3162 3161 3161 3164 3166 3168 3171 3174 3178 3181
3150 3150 3151 3151 3151 3151 3152 3153 3153 3154 3153 3153 3153 3151 3149 3150 3149 3149 3149 3148 3149 3148 3146 3146 3145 3144 3144 3145 3145 3145 3145 3145 3145 3145 3145 3145 3146 3146 3145 3145 3145 3144 3145 3144 3142 3140 3138 3137 3138 3142 3145 3145 3147 3149 3151 3152 3151 3152 3155 3154 3154 3155 3155 3156 3156 3156 3156 3153 3151 3150 3150 3152 3154 3156 3158 3160 3161 3161 3162 3161 3160 3162 3165 3166 3168 3171 3175 3179
3150 3151 3151 3151 3151 3152 3152 3153 3153 3154 3153 3153 3153 3151 3151 3151 3151 3151 3150 3149 3149 3149 3148 3147 3146 3145 3145 3145 3145 3146 3145 3144 3145 3145 3145 3145 3145 3146 3145 3145 3145 3145 3145 3145 3144 3142 3140 3138 3139 3142 3144 3144 3147 3149 3151 3151 3149 3149 3152 3152 3154 3156 3156 3156 3155 3155 3157 3154 3149 3147 3148 3149 3152 3154 3156 3159 3159 3159 3161 3161 3160 3161 3164 3165 3168 3170 3174 3178
3150 3151 3152 3152 3151 3152 3153 3153 3154 3153 3153 3153 3153 3153 3152 3151 3151 3151 3151 3150 3149 3149 3148 3148 3147 3146 3146 3145 3145 3146 3145 3144 3145 3145 3145 3145 3145 3145 3146 3145 3145 3146 3146 3145 3144 3143 3143 3141 3139 3141 3143 3144 3146 3147 3149 3150 3149 3149 3149 3150 3153 3153 3153 3154 3152 3152 3154 3152 3148 3146 3146 3147 3149 3152 3154 3156 3158 3158 3161 3160 3159 3161 3163 3165 3168 3171 3173 3177
3151 3152 3153 3152 3152 3152 3153 3153 3154 3153 3153 3154 3153 3152 3152 3152 3151 3151 3150 3150 3150 3149 3148 3148 3147 3146 3146 3145 3145 3145 3145 3145 3145 3145 3145 3145 3145 3146 3146 3146 3146 3146 3146 3145 3144 3144 3144 3143 3139 3140 3142 3143 3144 3144 3145 3146 3148 3149 3149 3149 3150 3150 3150 3151 3150 3150 3151 3150 3149 3147 3145 3146 3149 3151 3152 3155 3157 3158 3161 3160 3158 3161 3164 3165 3167 3170 3172 3175
3151 3154 3154 3152 3152 3153 3153 3153 3154 3153 3153 3153 3152 3152 3152 3152 3151 3151 3150 3150 3150 3149 3148 3148 3148 3147 3146 3146 3145 3145 3145 3145 3145 3145 3145 3145 3146 3146 3147 3147 3147 3146 3146 3145 3144 3144 3145 3144 3141 3140 3139 3140 3141 3141 3141 3143 3145 3148 3149 3148 3149 3150 3150 3150 3149 3150 3150 3149 3148 3148 3147 3148 3151 3152 3152 3155 3157 3157 3160 3160 3157 3161 3165 3165 3167 3169 3171 3174
3152 3155 3154 3152 3152 3153 3153 3153 3153 3153 3152 3152 3152 3152 3152 3151 3151 3151 3150 3150 3149 3149 3148 3148 3148 3147 3147 3146 3146 3146 3146 3145 3145 3145 3145 3145 3146 3146 3147 3147 3147 3147 3147 3145 3145 3145 3144 3143 3142 3140 3137 3136 3138 3139 3140 3142 3142 3145 3147 3148 3147 3148 3149 3148 3146 3147 3148 3147 3147 3147 3147 3150 3153 3153 3153 3156 3157 3157 3159 3159 3157 3160 3164 3165 3166 3168 3170 3173
3152 3154 3153 3151 3153 3153 3152 3154 3154 3153 3152 3150 3151 3152 3151 3151 3151 3151 3151 3150 3150 3150 3149 3148 3148 3147 3147 3146 3146 3146 3146 3145 3146 3145 3145 3146 3147 3147 3147 3147 3148 3148 3147 3146 3145 3145 3145 3143 3142 3141 3138 3136 3137 3138 3139 3140 3141 3143 3145 3146 3146 3145 3147 3146 3144 3145 3146 3146 3146 3145 3146 3152 3154 3153 3153 3155 3156 3157 3157 3158 3159 3161 3162 3164 3166 3167 3169 3172
3153 3154 3152 3150 3152 3153 3152 3153 3154 3153 3151 3150 3151 3152 3151 3151 3152 3151 3151 3150 3150 3149 3149 3148 3148 3147 3147 3147 3146 3146 3145 3145 3145 3145 3146 3146 3147 3147 3147 3147 3148 3148 3147 3147 3146 3145 3145 3144 3143 3141 3140 3138 3137 3137 3138 3140 3142 3142 3142 3144 3145 3144 3145 3145 3144 3144 3142 3142 3144 3143 3145 3152 3154 3152 3153 3154 3154 3156 3156 3156 3158 3160 3162 3164 3166 3167 3169 3172
3153 3155 3152 3150 3151 3152 3152 3153 3152 3151 3151 3151 3153 3152 3151 3151 3151 3151 3151 3150 3150 3150 3149 3148 3148 3147 3147 3147 3146 3146 3146 3145 3145 3145 3146 3146 3146 3147 3147 3147 3147 3147 3147 3147 3146 3145 3145 3144 3143 3142 3140 3139 3138 3137 3138 3140 3141 3141 3140 3142 3143 3143 3143 3144 3144 3145 3142 3141 3144 3143 3142 3149 3152 3151 3152 3153 3153 3155 3156 3156 3157 3160 3161 3163 3165 3167 3169 3171
3152 3153 3152 3150 3150 3151 3152 3152 3150 3149 3150 3152 3152 3152 3151 3151 3150 3150 3150 3150 3150 3150 3149 3148 3148 3148 3147 3147 3146 3146 3146 3145 3145 3145 3145 3146 3146 3146 3147 3147 3147 3147 3147 3146 3145 3145 3146 3145 3145 3143 3141 3140 3139 3138 3137 3138 3140 3140 3139 3139 3140 3141 3142 3141 3141 3144 3142 3141 3143 3143 3143 3148 3151 3151 3152 3152 3152 3154 3155 3155 3156 3158 3160 3161 3164 3167 3168 3170
3150 3151 3152 3151 3151 3151 3151 3151 3150 3149 3150 3151 3151 3151 3151 3151 3150 3149 3149 3150 3149 3149 3149 3148 3148 3148 3147 3147 3146 3146 3146 3146 3145 3145 3145 3145 3146 3146 3147 3147 3147 3146 3145 3145 3145 3145 3145 3145 3145 3143 3142 3142 3142 3140 3138 3138 3138 3138 3138 3138 3139 3141 3142 3142 3141 3141 3141 3142 3143 3144 3146 3148 3150 3152 3153 3152 3152 3153 3154 3155 3156 3158 3160 3162 3163 3165 3167 3169
3149 3149 3150 3150 3150 3151 3151 3151 3151 3150 3149 3150 3150 3150 3151 3151 3150 3149 3149 3149 3149 3148 3148 3148 3148 3148 3147 3147 3146 3146 3146 3146 3145 3145 3145 3145 3145 3146 3146 3146 3147 3146 3145 3145 3145 3145 3145 3144 3144 3143 3143 3143 3144 3142 3141 3141 3140 3138 3139 3139 3140 3141 3142 3143 3142 3141 3143 3144 3144 3145 3148 3150 3150 3153 3154 3153 3153 3153 3154 3154 3156 3158 3160 3162 3163 3164 3167 3169
3148 3148 3148 3147 3148 3150 3150 3150 3150 3150 3149 3149 3149 3149 3150 3150 3150 3150 3149 3148 3149 3148 3148 3148 3148 3148 3147 3147 3147 3146 3146 3146 3145 3145 3145 3145 3146 3146 3145 3146 3146 3146 3145 3145 3146 3145 3145 3144 3143 3143 3143 3143 3144 3143 3142 3142 3141 3140 3140 3140 3141 3142 3143 3144 3144 3144 3145 3146 3145 3147 3149 3151 3151 3152 3154 3154 3153 3153 3154 3154 3156 3158 3160 3162 3163 3164 3166 3168
3147 3148 3147 3147 3147 3148 3148 3148 3148 3149 3149 3149 3149 3149 3150 3149 3149 3149 3149 3149 3149 3148 3148 3148 3148 3148 3147 3147 3147 3146 3146 3146 3145 3145 3145 3146 3146 3145 3145 3145 3145 3146 3145 3145 3145 3145 3144 3143 3143 3143 3144 3143 3143 3143 3142 3142 3141 3140 3140 3140 3141 3141 3142 3144 3145 3145 3146 3147 3148 3149 3150 3151 3152 3152 3153 3153 3152 3153 3154 3154 3156 3159 3160 3162 3164 3165 3166 3167
3144 3145 3145 3145 3147 3148 3148 3148 3148 3149 3148 3148 3148 3148 3149 3149 3149 3149 3149 3148 3149 3148 3148 3148 3148 3147 3147 3147 3147 3147 3146 3146 3146 3146 3146 3146 3146 3145 3145 3145 3145 3146 3145 3145 3145 3145 3144 3143 3143 3144 3144 3143 3143 3142 3142 3142 3142 3140 3140 3140 3141 3141 3142 3144 3144 3144 3146 3147 3148 3150 3149 3150 3153 3153 3153 3152 3152 3153 3154 3155 3157 3159 3161 3163 3164 3165 3166 3166
3141 3142 3143 3144 3146 3147 3147 3148 3148 3148 3148 3147 3147 3147 3148 3149 3148 3148 3148 3147 3147 3148 3148 3148 3148 3147 3147 3147 3147 3147 3146 3146 3147 3146 3146 3147 3146 3146 3145 3145 3145 3145 3145 3145 3145 3144 3144 3143 3143 3144 3143 3142 3142 3142 3142 3142 3142 3141 3141 3141 3141 3141 3141 3143 3144 3145 3145 3145 3146 3148 3148 3149 3152 3152 3151 3152 3153 3154 3155 3156 3157 3159 3161 3163 3164 3164 3164 3165
3139 3141 3142 3143 3144 3145 3146 3147 3148 3147 3146 3146 3146 3147 3147 3148 3147 3147 3147 3146 3146 3146 3146 3147 3147 3146 3147 3147 3146 3146 3146 3146 3147 3146 3146 3146 3146 3146 3146 3145 3145 3145 3145 3145 3144 3143 3143 3142 3142 3143 3142 3141 3142 3142 3142 3142 3141 3141 3142 3142 3142 3141 3140 3141 3143 3144 3145 3145 3145 3146 3147 3149 3151 3151 3150 3152 3154 3155 3156 3156 3157 3159 3160 3162 3163 3163 3163 3165